Regional Weather Roundup
Issued by NWS Jackson, KY

Home | Current Version | Previous Version | Graphics & Text | Print | Product List | Glossary On
Versions: 1 2 3 4 5 6 7 8 9 10 11 12 13 14 15 16 17 18 19 20 21 22 23 24 25 26 27 28 29 30 31 32 33 34 35 36 37 38 39 40 41 42 43 44 45 46 47 48 49 50
000
ASUS43 KJKL 022010
RWRJKL

EAST KENTUCKY HOURLY WEATHER ROUNDUP
NATIONAL WEATHER SERVICE JACKSON KY
400 PM EDT THU JUL 02 2015

NOTE: "FAIR" INDICATES FEW OR NO CLOUDS BELOW 12,000 FEET WITH
NO SIGNIFICANT WEATHER AND/OR OBSTRUCTIONS TO VISIBILITY.

* THESE REPORTS ARE NOT UNDER NWS QUALITY CONTROL AND MAY NOT
  REPORT WEATHER SUCH AS PRECIPITATION AND FOG.

KYZ079-080-083-085-087-088-110-112-115-119-120-022100
...EASTERN KENTUCKY...

CITY           SKY/WX    TMP DP  RH WIND       PRES   REMARKS
JACKSON        MOSUNNY   75  68  78 VRB3      29.92F
LONDON         PTSUNNY   76  64  66 S7        29.92F
SOMERSET*      PTSUNNY   75  64  69 SW8       29.91F
MONTICELLO*    MOSUNNY   81  70  69 CALM      29.93F
MIDDLESBORO*   CLOUDY    74  67  78 S9        29.94F
HARLAN APT*      N/A     77  63  61 W7        29.95S
HAZARD APT*    PTCLDY    77  66  69 SW6       29.92F
BLACK MTN*       N/A     66  63  88 SW5         N/A
PIKEVILLE APT* CLOUDY    72  68  88 S3        29.93F
BIG SANDY*     CLOUDY    73  68  84 SW3       29.93F
MOREHEAD APT*  CLOUDY    75  68  78 VRB5      29.92F
$$

KYZ035-036-041-042-044-050-067-078-099-022100
...CENTRAL KENTUCKY...

CITY           SKY/WX    TMP DP  RH WIND       PRES   REMARKS
MT STERLING*   PTSUNNY   72  70  94 CALM      29.90F
FLEMING/MASON* DRIZZLE   72  68  88 SE6       29.90S
DANVILLE*      CLOUDY    79  68  69 SW7       29.90F
RICHMOND*      CLOUDY    75  66  73 SW5       29.90S
LEXINGTON      CLOUDY    72  68  87 SE3       29.90S
FRANKFORT      CLOUDY    74  69  85 CALM      29.87S
$$

KYZ091>093-OHZ055-061-077-WVZ005-015-034-035-042-022100
...SOUTHERN OHIO/WEST VIRGINIA...

CITY           SKY/WX    TMP DP  RH WIND       PRES   REMARKS
COVINGTON      LGT RAIN  75  67  76 NE9       29.88S
COLUMBUS       CLOUDY    70  62  76 E5        29.93F
DAYTON         PTSUNNY   76  63  64 NE14      29.92F
WILMINGTON     MOSUNNY   74  65  73 E9        29.90F
HUNTINGTON     CLOUDY    68  66  93 E8        29.91F FOG
CHARLESTON     CLOUDY    70  64  81 SE5       29.93F
PINEVILLE*     CLOUDY    69  67  96 MISG      30.01F FOG
BECKLEY        LGT RAIN  64  61  90 NE6       30.00S FOG
BLUEFIELD      LGT RAIN  68  62  81 W3        30.01S
$$

VAZ002-007-008-TNZ017-027-036-066-071-022100
...SOUTHWEST VIRGINIA/EAST TENNESSEE...

CITY           SKY/WX    TMP DP  RH WIND       PRES   REMARKS
WISE*          CLOUDY    72  66  83 SW10      30.00F
JONESVILLE*      N/A    N/A N/A N/A MISG        N/A
ABINGDON*      CLOUDY    73  69  86 W7        29.99F
BRISTOL        CLOUDY    75  64  68 SW15G22   29.96F
KNOXVILLE      CLOUDY    77  69  76 VRB5      29.93F
OAK RIDGE      PTSUNNY   77  68  73 W8        29.95F
CROSSVILLE     PTSUNNY   77  68  73 S7        29.97F
NASHVILLE      PTSUNNY   82  74  76 S10       29.89F
$$

...KEY TO REMARKS...
VSB - VISIBILITY IN MILES
WCI - WIND CHILL INDEX
HX  - HEAT INDEX

$$



USA.gov is the U.S. government's official web portal to all federal, state and local government web resources and services.